Showing default

HODOYOSHI 4, 40011

Orbit data source: Space-Track

HODOYOSHI 4, 40011 is a payload satellite owned by Tokyo (JP) in SSO that was launched on Thu, 19 Jun 2014 UTC via a DNEPR launch vehicle from the Orenburg, Russia (OREN). Payload-class satellites include a variety of spacecraft equipped with specific instruments for various scientific and technological missions. These include communications satellites like Starlink; space stations such as the ISS; scientific satellites like the Hubble; Earth observation satellites from companies like Planet Labs, Umbra, and HawkEye 360; GPS; miniature CubeSats for education and research; and military/defense satellites.

Loading next visibility...
Identifier
40011, 2014-033B
Orbit
SSO
Country
Flag of JPJP / JPN
Related business
Manufacturer
AXELSPACE
Mission
Operational Commercial Imaging
Bus & Motor
HODOYOSHI, Unknown motor
Mass
64 kg wet, 64 kg dry
Launch date (UTC)
2014-06-19 (12 years ago)
Launch vehicle
DNEPR
Launch site
Orenburg, Russia (OREN)
Object type
Payload
Rocket body
Debris
Shape & HBR
Box + 2 Pan, 0.8 m
Radar Cross Section
0.614 m², Medium (>0.1 m² and < 1m²)

Expand to show TLE details & history
Last TLE update: 8 hours ago

TLE from 8 hours ago
0 HODOYOSHI 4
1 40011U 14033B   26124.19199801  .00001299  00000-0  14630-3 0  9998
2 40011  97.5450 311.1412 0025141  91.3614 269.0484 14.88022500642261
Epoch: 2026-05-04T04:36Z
TLE epoch observation values (Epoch: 2026-05-04T04:36:28.628Z)
Latitude
0.00003°
Longitude
19.93718°
Altitude
607.493 km
Speed
7.555 km/s
True Right ascension
20h 44m 33s
True Declination
0° 00' 00"
Sunlit
Object was in daylight at epoch
Visualization orbit readout
Latitude
Unknown
Longitude
Unknown
Altitude
Unknown
Speed
Unknown
Apparent Right ascension
Unknown
Apparent Declination
Unknown
Sunlit
N/A
Visualization observer readout
Local Sidereal Time
20:15:39
Azimuth
Unknown
Elevation
Unknown
Doppler factor
Unknown
Orbital elements
Apogee altitude
618.676 km
Perigee altitude
583.583 km
Semi-major axis
6,979.266 km
Eccentricity
0.00251
Inclination
97.545°
RAAN
311.1412°
Arg. of periapsis
91.3614°
True anomaly
268.76036°
Mean anomaly
269.0484°
Eccentric anomaly
268.90438°
Mean motion
3.72245 °/min
Orbital period
96.71 mins
BSTAR
0.0001463
Loading maneuver chart data...
Computing Atmospheric mass density...
Loading historical data...
Loading historical data...
Loading historical data...
Loading historical data...
Loading historical data...
Loading historical data...
Loading historical data...

Documentation

Showing up to 5 results
|